Location: Central Coast
(33.3208°S, 151.2336°E)
Time: 18:56:23
(UTC+11:00)

Vanguard 1 - Visible Passes

Search period start: 17 October 2017 00:00
Search period end: 27 October 2017 00:00
Orbit: 650 x 3834 km, 34.3° (Epoch: 15 October)

Date Brightness Start Highest point End Pass type
(mag) Time Alt. Az. Time Alt. Az. Time Alt. Az.
17 Oct 12.1 21:31:03 10° NW 21:32:42 11° NNW 21:32:50 11° NNW visible
18 Oct 10.8 19:29:23 10° W 19:33:18 30° NNW 19:37:59 10° NE visible
19 Oct 11.3 19:50:58 10° WNW 19:54:17 20° NNW 19:58:10 10° NNE visible
20 Oct 11.9 20:13:26 10° NW 20:15:18 12° NNW 20:17:21 10° N visible
